timestamp,wind_dir_avg,wind_spd_avg,wind_spd_max_dir,wind_spd_gust,battery_voltage,lat,long
2022-07-28 00:04:00+00:00,210.0,2.54,209.0,2.73,12.73,47.59359,-54.27349
2022-07-28 00:14:00+00:00,193.0,4.14,196.0,4.53,12.49,47.59359,-54.27349
2022-07-28 00:24:00+00:00,207.0,4.34,215.0,5.21,12.49,47.59359,-54.27349
2022-07-28 00:34:00+00:00,207.0,4.57,208.0,5.0,12.49,47.59359,-54.27349
2022-07-28 00:44:00+00:00,204.0,4.78,199.0,5.2,12.49,47.59359,-54.27349
2022-07-28 00:54:00+00:00,201.0,4.74,204.0,5.08,12.49,47.59359,-54.27349
2022-07-28 01:04:00+00:00,230.0,2.84,227.0,3.68,12.49,47.59359,-54.27349
2022-07-28 01:14:01+00:00,217.0,4.08,219.0,4.49,12.49,47.59359,-54.27349
2022-07-28 01:24:01+00:00,206.0,4.06,205.0,4.53,12.49,47.59359,-54.27349
2022-07-28 01:34:01+00:00,211.0,3.35,205.0,3.84,12.49,47.59359,-54.27349
2022-07-28 01:44:01+00:00,207.0,4.01,215.0,4.47,12.49,47.59359,-54.27349
2022-07-28 01:54:01+00:00,211.0,4.0,215.0,4.43,12.49,47.59359,-54.27349
2022-07-28 02:04:01+00:00,216.0,3.97,231.0,5.04,12.49,47.59359,-54.27349
2022-07-28 02:14:01+00:00,217.0,4.0,224.0,4.71,12.41,47.59359,-54.27349
2022-07-28 02:24:01+00:00,213.0,3.23,219.0,3.9,12.41,47.59359,-54.27349
2022-07-28 02:34:01+00:00,205.0,3.05,200.0,3.32,12.41,47.59359,-54.27349
2022-07-28 02:44:01+00:00,211.0,2.5,212.0,2.93,12.41,47.59359,-54.27349
2022-07-28 02:54:01+00:00,212.0,2.57,236.0,3.53,12.41,47.59359,-54.27349
2022-07-28 03:04:01+00:00,217.0,2.16,227.0,2.54,12.41,47.59359,-54.27349
2022-07-28 03:14:00+00:00,232.0,2.22,249.0,3.23,12.41,47.59359,-54.27349
2022-07-28 03:24:00+00:00,229.0,2.95,242.0,4.02,12.41,47.59359,-54.27349
2022-07-28 03:34:00+00:00,241.0,1.89,244.0,2.89,12.41,47.59359,-54.27349
2022-07-28 03:44:00+00:00,276.0,1.95,273.0,3.76,12.41,47.59359,-54.27349
2022-07-28 03:54:00+00:00,284.0,3.09,280.0,4.26,12.41,47.59359,-54.27349
2022-07-28 04:04:00+00:00,275.0,3.68,275.0,4.05,12.41,47.59359,-54.27349
2022-07-28 04:14:00+00:00,284.0,2.67,280.0,3.53,12.41,47.59359,-54.27349
2022-07-28 04:24:00+00:00,264.0,1.64,262.0,2.0,12.41,47.59359,-54.27349
2022-07-28 04:34:00+00:00,253.0,3.26,258.0,3.81,12.41,47.59359,-54.27349
2022-07-28 04:44:00+00:00,252.0,3.86,256.0,4.36,12.41,47.59359,-54.27349
2022-07-28 04:54:00+00:00,241.0,2.05,253.0,2.85,12.41,47.59359,-54.27349
2022-07-28 05:04:00+00:00,238.0,3.06,240.0,4.25,12.41,47.59359,-54.27349
2022-07-28 05:14:01+00:00,248.0,2.42,238.0,3.1,12.49,47.59359,-54.27349
2022-07-28 05:24:01+00:00,233.0,3.04,236.0,3.62,12.49,47.59359,-54.27349
2022-07-28 05:34:01+00:00,226.0,1.11,232.0,1.48,12.49,47.59359,-54.27349
2022-07-28 05:44:01+00:00,284.0,2.07,284.0,2.7,12.49,47.59359,-54.27349
2022-07-28 05:54:01+00:00,230.0,2.45,234.0,3.3,12.49,47.59359,-54.27349
2022-07-28 06:04:01+00:00,220.0,2.93,225.0,3.79,12.49,47.59359,-54.27349
2022-07-28 06:14:01+00:00,243.0,1.89,248.0,2.62,12.41,47.59359,-54.27349
2022-07-28 06:24:01+00:00,276.0,2.33,277.0,2.74,12.41,47.59359,-54.27349
2022-07-28 06:34:01+00:00,230.0,2.29,233.0,2.76,12.41,47.59359,-54.27349
2022-07-28 06:44:01+00:00,229.0,2.1,224.0,2.44,12.41,47.59359,-54.27349
2022-07-28 06:54:01+00:00,246.0,1.6,241.0,2.09,12.41,47.59359,-54.27349
2022-07-28 07:04:01+00:00,312.0,1.96,306.0,2.31,12.41,47.59359,-54.27349
2022-07-28 07:14:00+00:00,219.0,1.99,213.0,2.2,12.41,47.59359,-54.27349
2022-07-28 07:24:00+00:00,265.0,2.32,267.0,2.7,12.41,47.59359,-54.27349
2022-07-28 07:34:00+00:00,287.0,2.07,292.0,2.32,12.41,47.59359,-54.27349
2022-07-28 07:44:00+00:00,239.0,1.69,238.0,1.98,12.41,47.59359,-54.27349
2022-07-28 07:54:00+00:00,277.0,2.3,283.0,2.67,12.41,47.59359,-54.27349
2022-07-28 08:04:00+00:00,266.0,2.69,267.0,3.22,12.41,47.59359,-54.27349
2022-07-28 08:14:00+00:00,271.0,2.94,267.0,3.82,12.33,47.59359,-54.27349
2022-07-28 08:24:00+00:00,272.0,2.34,272.0,3.51,12.33,47.59359,-54.27349
2022-07-28 08:34:00+00:00,290.0,1.81,291.0,2.41,12.33,47.59359,-54.27349
2022-07-28 08:44:00+00:00,309.0,2.06,311.0,2.45,12.33,47.59359,-54.27349
2022-07-28 08:54:00+00:00,277.0,1.83,276.0,2.12,12.33,47.59359,-54.27349
2022-07-28 09:04:00+00:00,333.0,2.52,333.0,2.78,12.33,47.59359,-54.27349
2022-07-28 09:14:01+00:00,314.0,2.41,315.0,2.74,12.57,47.59359,-54.27349
2022-07-28 09:24:01+00:00,306.0,2.77,308.0,3.08,12.57,47.59359,-54.27349
2022-07-28 09:34:01+00:00,293.0,2.09,296.0,2.45,12.57,47.59359,-54.27349
2022-07-28 09:44:01+00:00,283.0,1.16,296.0,1.44,12.57,47.59359,-54.27349
2022-07-28 09:54:01+00:00,289.0,1.33,287.0,1.63,12.57,47.59359,-54.27349
2022-07-28 10:04:01+00:00,253.0,1.61,253.0,1.88,12.57,47.59359,-54.27349
2022-07-28 10:14:00+00:00,269.0,1.26,270.0,1.37,13.29,47.59359,-54.27349
2022-07-28 10:24:00+00:00,269.0,0.66,274.0,0.81,13.29,47.59359,-54.27349
2022-07-28 10:34:00+00:00,221.0,0.82,212.0,0.99,13.29,47.59359,-54.27349
2022-07-28 10:44:00+00:00,212.0,0.9,210.0,1.07,13.29,47.59359,-54.27349
2022-07-28 10:54:00+00:00,191.0,1.08,196.0,1.27,13.29,47.59359,-54.27349
2022-07-28 11:04:00+00:00,343.0,1.01,334.0,1.22,13.29,47.59359,-54.27349
2022-07-28 11:14:01+00:00,212.0,0.62,220.0,0.8,13.68,47.59359,-54.27349
2022-07-28 11:24:01+00:00,55.0,0.65,40.0,0.88,13.68,47.59359,-54.27349
2022-07-28 11:34:01+00:00,108.0,0.03,106.0,0.33,13.68,47.59359,-54.27349
2022-07-28 11:44:01+00:00,132.0,0.58,120.0,0.86,13.68,47.59359,-54.27349
2022-07-28 11:54:01+00:00,134.0,0.97,144.0,1.28,13.68,47.59359,-54.27349
2022-07-28 12:04:01+00:00,161.0,1.69,161.0,1.99,13.68,47.59359,-54.27349
2022-07-28 12:14:00+00:00,143.0,1.11,145.0,1.34,13.84,47.59359,-54.27349
2022-07-28 12:24:00+00:00,111.0,0.91,144.0,1.54,13.84,47.59359,-54.27349
2022-07-28 12:34:00+00:00,129.0,1.73,129.0,1.88,13.84,47.59359,-54.27349
2022-07-28 12:44:00+00:00,140.0,1.32,144.0,1.58,13.84,47.59359,-54.27349
2022-07-28 12:54:00+00:00,74.0,1.11,52.0,2.28,13.84,47.59359,-54.27349
2022-07-28 13:04:00+00:00,76.0,1.78,76.0,2.73,13.84,47.59359,-54.27349
2022-07-28 13:14:00+00:00,50.0,1.66,45.0,1.98,14.24,47.59359,-54.27349
2022-07-28 13:24:00+00:00,39.0,1.44,45.0,1.74,14.24,47.59359,-54.27349
2022-07-28 13:34:00+00:00,353.0,0.65,351.0,0.81,14.24,47.59359,-54.27349
2022-07-28 13:44:00+00:00,27.0,1.02,39.0,1.41,14.24,47.59359,-54.27349
2022-07-28 13:54:00+00:00,279.0,0.24,329.0,0.5,14.24,47.59359,-54.27349
2022-07-28 14:04:00+00:00,45.0,1.35,57.0,1.95,14.24,47.59359,-54.27349
2022-07-28 15:14:01+00:00,269.0,3.19,270.0,5.77,14.32,47.59359,-54.27349
2022-07-28 15:24:01+00:00,272.0,1.88,268.0,2.05,14.32,47.59359,-54.27349
2022-07-28 15:34:01+00:00,219.0,3.6,211.0,4.19,14.32,47.59359,-54.27349
2022-07-28 15:44:01+00:00,215.0,3.04,217.0,3.49,14.32,47.59359,-54.27349
2022-07-28 15:54:01+00:00,237.0,2.94,249.0,4.58,14.32,47.59359,-54.27349
2022-07-28 16:04:01+00:00,252.0,4.29,260.0,6.18,14.32,47.59359,-54.27349
2022-07-28 16:14:01+00:00,214.0,2.88,215.0,3.14,13.84,47.59359,-54.27349
2022-07-28 16:24:01+00:00,211.0,2.26,211.0,2.65,13.84,47.59359,-54.27349
2022-07-28 16:34:01+00:00,207.0,2.06,210.0,2.19,13.84,47.59359,-54.27349
2022-07-28 16:44:01+00:00,204.0,2.41,200.0,2.65,13.84,47.59359,-54.27349
2022-07-28 16:54:01+00:00,211.0,2.92,222.0,3.62,13.84,47.59359,-54.27349
2022-07-28 17:04:01+00:00,241.0,4.52,249.0,6.4,13.84,47.59359,-54.27349
2022-07-28 17:14:01+00:00,228.0,4.67,237.0,5.83,13.84,47.59359,-54.27349
2022-07-28 17:24:01+00:00,240.0,4.86,246.0,6.29,13.84,47.59359,-54.27349
2022-07-28 17:34:01+00:00,234.0,4.44,242.0,5.62,13.84,47.59359,-54.27349
2022-07-28 17:44:01+00:00,228.0,4.19,237.0,5.04,13.84,47.59359,-54.27349
2022-07-28 17:54:01+00:00,240.0,3.66,246.0,4.3,13.84,47.59359,-54.27349
2022-07-28 18:04:01+00:00,243.0,3.84,253.0,5.66,13.84,47.59359,-54.27349
2022-07-28 18:14:01+00:00,225.0,0.47,242.0,0.68,13.76,47.59359,-54.27349
2022-07-28 18:24:01+00:00,7.0,0.8,17.0,1.04,13.76,47.59359,-54.27349
2022-07-28 18:34:01+00:00,72.0,1.8,77.0,3.07,13.76,47.59359,-54.27349
2022-07-28 18:44:01+00:00,53.0,5.42,34.0,6.12,13.76,47.59359,-54.27349
2022-07-28 18:54:01+00:00,51.0,9.56,49.0,10.69,13.76,47.59359,-54.27349
2022-07-28 19:04:01+00:00,52.0,9.7,51.0,10.71,13.76,47.59359,-54.27349
2022-07-28 19:14:00+00:00,62.0,8.53,59.0,9.64,13.68,47.59359,-54.27349
2022-07-28 19:24:00+00:00,58.0,8.21,58.0,9.8,13.68,47.59359,-54.27349
2022-07-28 19:34:00+00:00,57.0,8.11,60.0,9.02,13.68,47.59359,-54.27349
2022-07-28 19:44:00+00:00,63.0,7.41,63.0,8.75,13.68,47.59359,-54.27349
2022-07-28 19:54:00+00:00,60.0,6.95,57.0,8.38,13.68,47.59359,-54.27349
2022-07-28 20:04:00+00:00,57.0,8.38,56.0,8.75,13.68,47.59359,-54.27349
2022-07-28 20:14:00+00:00,59.0,8.05,55.0,9.09,13.44,47.59359,-54.27349
2022-07-28 20:24:00+00:00,59.0,7.35,57.0,8.43,13.44,47.59359,-54.27349
2022-07-28 20:34:00+00:00,57.0,6.63,58.0,7.63,13.44,47.59359,-54.27349
2022-07-28 20:44:00+00:00,63.0,6.7,57.0,7.92,13.44,47.59359,-54.27349
2022-07-28 20:54:00+00:00,66.0,6.01,61.0,7.38,13.44,47.59359,-54.27349
2022-07-28 21:04:00+00:00,70.0,6.33,74.0,7.08,13.44,47.59359,-54.27349
2022-07-28 21:14:01+00:00,72.0,5.39,62.0,6.42,13.37,47.59359,-54.27349
2022-07-28 21:24:01+00:00,72.0,4.23,91.0,5.68,13.37,47.59359,-54.27349
2022-07-28 21:34:01+00:00,84.0,4.14,70.0,5.8,13.37,47.59359,-54.27349
2022-07-28 21:44:01+00:00,87.0,3.51,84.0,6.14,13.37,47.59359,-54.27349
2022-07-28 21:54:01+00:00,73.0,4.18,74.0,5.5,13.37,47.59359,-54.27349
2022-07-28 22:04:01+00:00,78.0,3.53,80.0,5.22,13.37,47.59359,-54.27349
2022-07-28 22:14:01+00:00,112.0,3.31,132.0,6.08,12.97,47.59359,-54.27349
2022-07-28 22:24:01+00:00,89.0,3.08,106.0,4.39,12.97,47.59359,-54.27349
2022-07-28 22:34:01+00:00,94.0,3.99,109.0,6.5,12.97,47.59359,-54.27349
2022-07-28 22:44:01+00:00,91.0,4.04,105.0,5.85,12.97,47.59359,-54.27349
2022-07-28 22:54:01+00:00,84.0,4.63,73.0,6.85,12.97,47.59359,-54.27349
2022-07-28 23:04:01+00:00,80.0,5.14,91.0,7.79,12.97,47.59359,-54.27349
2022-07-28 23:14:00+00:00,80.0,4.45,89.0,6.26,12.57,47.59359,-54.27349
2022-07-28 23:24:00+00:00,75.0,3.8,82.0,6.09,12.57,47.59359,-54.27349
2022-07-28 23:34:00+00:00,82.0,4.27,76.0,6.06,12.57,47.59359,-54.27349
2022-07-28 23:44:00+00:00,79.0,4.91,91.0,6.7,12.57,47.59359,-54.27349
2022-07-28 23:54:00+00:00,79.0,4.82,66.0,6.58,12.57,47.59359,-54.27349
